CW6617 Weather Reports


time (UTC)temp
C
wind
direction
speed
KPH
gust
KPH
rain 1hr
cm
rain 24hr
cm
rain mn
cm
humidity
%
barometer
mb
20260905214204 14 169 0.0 0.0 0.00 0.00 0.00 78 1025.2
20260905213704 15 169 0.0 0.0 0.00 0.00 0.00 77 1025.2
20260905213204 15 169 0.0 0.0 0.00 0.00 0.00 77 1025.3
20260905211704 15 169 0.0 0.0 0.00 0.00 0.00 76 1025.4
20260905211204 15 169 0.0 0.0 0.00 0.00 0.00 76 1025.3
20260905210704 15 169 0.0 0.0 0.00 0.00 0.00 75 1025.3
20260905210204 15 169 0.0 8.0 0.00 0.00 0.00 75 1025.2
20260905204704 15 169 0.0 0.0 0.00 0.00 0.00 73 1025.2
20260905204204 15 169 0.0 0.0 0.00 0.00 0.00 73 1025.2
20260905203704 16 169 0.0 0.0 0.00 0.00 0.00 73 1025.2
20260905203204 16 169 0.0 0.0 0.00 0.00 0.00 72 1025.1
20260905201704 16 169 0.0 1.6 0.00 0.00 0.00 71 1025.2
20260905201204 16 169 1.6 8.0 0.00 0.00 0.00 70 1025.2
20260905200704 16 169 1.6 3.2 0.00 0.00 0.00 69 1025.1
20260905200204 16 169 0.0 9.7 0.00 0.00 0.00 68 1025.1
20260905194204 17 200 0.0 0.0 0.00 0.00 0.00 66 1025.0
20260905193704 17 200 0.0 0.0 0.00 0.00 0.00 65 1025.0
20260905191704 18 200 0.0 0.0 0.00 0.00 0.00 62 1024.8
20260905191204 18 200 1.6 1.6 0.00 0.00 0.00 62 1024.6
20260905190704 18 200 0.0 0.0 0.00 0.00 0.00 61 1024.7
20260905190205 18 200 0.0 1.6 0.00 0.00 0.00 59 1024.8
20260905184704 19 200 1.6 3.2 0.00 0.00 0.00 57 1024.5
20260905184204 19 200 0.0 3.2 0.00 0.00 0.00 57 1024.6
20260905183704 20 200 0.0 1.6 0.00 0.00 0.00 56 1024.5
20260905181704 20 200 0.0 3.2 0.00 0.00 0.00 54 1024.5
20260905181204 20 200 0.0 0.0 0.00 0.00 0.00 54 1024.5
20260905180204 20 195 0.0 3.2 0.00 0.00 0.00 53 1024.5
20260905174703 21 194 1.6 3.2 0.00 0.00 0.00 52 1024.4
20260905174205 21 180 1.6 8.0 0.00 0.00 0.00 52 1024.5
20260905173703 21 213 3.2 4.8 0.00 0.00 0.00 51 1024.5
20260905171703 21 174 0.0 3.2 0.00 0.00 0.00 53 1024.4
20260905171203 21 173 3.2 8.0 0.00 0.00 0.00 53 1024.4
20260905170704 21 296 3.2 9.7 0.00 0.00 0.00 51 1024.5
20260905164703 22 284 3.2 8.0 0.00 0.00 0.00 50 1024.3
20260905164204 22 298 3.2 12.9 0.00 0.00 0.00 50 1024.2
20260905163704 22 211 3.2 9.7 0.00 0.00 0.00 50 1024.2
20260905163205 22 168 3.2 11.3 0.00 0.00 0.00 49 1024.3
20260905161703 23 293 3.2 9.7 0.00 0.00 0.00 48 1024.4
20260905161203 23 302 4.8 14.5 0.00 0.00 0.00 47 1024.4
20260905160704 23 303 3.2 9.7 0.00 0.00 0.00 47 1024.3
20260905160204 24 251 1.6 16.1 0.00 0.00 0.00 46 1024.3
20260905154704 23 181 4.8 11.3 0.00 0.00 0.00 49 1024.3
20260905153705 23 296 8.0 16.1 0.00 0.00 0.00 47 1024.3
20260905153204 24 291 6.4 19.3 0.00 0.00 0.00 48 1024.3
20260905151703 23 313 6.4 16.1 0.00 0.00 0.00 49 1024.5
20260905151204 23 304 9.7 16.1 0.00 0.00 0.00 48 1024.4
20260905150704 23 307 9.7 19.3 0.00 0.00 0.00 48 1024.5
20260905150204 23 267 3.2 16.1 0.00 0.00 0.00 47 1024.5
20260905144703 23 259 1.6 11.3 0.00 0.00 0.00 48 1024.6
20260905144204 23 264 4.8 12.9 0.00 0.00 0.00 48 1024.7
20260905143204 23 204 4.8 14.5 0.00 0.00 0.00 48 1024.6
20260905141204 23 284 4.8 12.9 0.00 0.00 0.00 50 1024.6
20260905140704 23 175 3.2 9.7 0.00 0.00 0.00 48 1024.6
20260905140203 23 294 8.0 20.9 0.00 0.00 0.00 50 1024.7
20260905134705 22 173 4.8 16.1 0.00 0.00 0.00 51 1024.6
20260905133703 22 339 3.2 11.3 0.00 0.00 0.00 52 1024.5
20260905131204 22 286 4.8 12.9 0.00 0.00 0.00 50 1024.4
20260905130704 22 198 4.8 11.3 0.00 0.00 0.00 51 1024.4
20260905130204 22 313 3.2 22.5 0.00 0.00 0.00 49 1024.4
20260905124204 22 258 3.2 9.7 0.00 0.00 0.00 53 1024.4
20260905123204 22 217 3.2 16.1 0.00 0.00 0.00 52 1024.3
20260905121705 22 205 3.2 19.3 0.00 0.00 0.00 54 1024.4
20260905121204 22 305 8.0 16.1 0.00 0.00 0.00 53 1024.3
20260905114704 21 228 6.4 14.5 0.00 0.00 0.00 53 1024.2
20260905114203 21 312 9.7 20.9 0.00 0.00 0.00 56 1024.3
20260905113204 20 294 6.4 22.5 0.00 0.00 0.00 56 1024.3
20260905111704 21 310 6.4 16.1 0.00 0.00 0.00 57 1024.4
20260905110703 21 294 4.8 11.3 0.00 0.00 0.00 58 1024.5
20260905110204 20 310 8.0 20.9 0.00 0.00 0.00 58 1024.3
20260905104703 20 279 4.8 19.3 0.00 0.00 0.00 59 1024.3
20260905103704 19 263 4.8 12.9 0.00 0.00 0.00 61 1024.4
20260905103206 19 282 11.3 19.3 0.00 0.00 0.00 61 1024.3
20260905101204 19 310 11.3 22.5 0.00 0.00 0.00 63 1024.2
20260905100704 19 307 12.9 22.5 0.00 0.00 0.00 63 1024.2
20260905100204 19 293 9.7 19.3 0.00 0.00 0.00 65 1024.1
20260905094704 18 308 9.7 19.3 0.00 0.00 0.00 66 1024.1
20260905094204 18 275 4.8 12.9 0.00 0.00 0.00 66 1024.1
20260905093703 18 312 9.7 20.9 0.00 0.00 0.00 67 1024.0
20260905093204 18 306 8.0 14.5 0.00 0.00 0.00 67 1024.0
20260905091704 18 267 3.2 19.3 0.00 0.00 0.00 71 1023.9
20260905091204 17 289 4.8 19.3 0.00 0.00 0.00 73 1023.9
20260905090704 17 300 11.3 20.9 0.00 0.00 0.00 74 1024.0
20260905090205 17 288 8.0 16.1 0.00 0.00 0.00 74 1023.9
20260905084705 16 268 3.2 9.7 0.00 0.00 0.00 77 1023.8
20260905084203 16 279 4.8 14.5 0.00 0.00 0.00 78 1023.8
20260905083204 15 239 4.8 14.5 0.00 0.00 0.00 81 1023.8
20260905081703 14 281 3.2 12.9 0.00 0.00 0.00 85 1023.7
20260905081203 14 258 9.7 20.9 0.00 0.00 0.00 86 1023.7
20260905080703 13 200 3.2 11.3 0.00 0.00 0.00 88 1023.6
20260905080204 13 212 1.6 14.5 0.00 0.00 0.00 88 1023.5
20260905074203 13 252 3.2 4.8 0.00 0.00 0.00 91 1023.4
20260905073704 12 282 3.2 16.1 0.00 0.03 0.00 92 1023.5
20260905073204 12 285 3.2 12.9 0.00 0.03 0.00 92 1023.4
20260905071704 12 265 3.2 11.3 0.00 0.13 0.00 94 1023.3
20260905071203 12 202 1.6 4.8 0.00 0.13 0.00 93 1023.2
20260905070704 12 209 1.6 8.0 0.00 0.13 0.00 94 1023.2
20260905070205 11 245 1.6 4.8 0.00 0.13 0.00 94 1023.1
20260905064704 11 191 1.6 8.0 0.00 0.13 0.00 94 1023.1
20260905064204 11 200 1.6 4.8 0.00 0.13 0.00 93 1023.1
20260905063704 11 239 0.0 1.6 0.00 0.13 0.00 93 1023.0
20260905061704 11 237 0.0 3.2 0.00 0.13 0.00 93 1022.7
20260905061204 11 238 0.0 0.0 0.00 0.13 0.00 93 1022.7
20260905060204 11 239 1.6 4.8 0.00 0.13 0.00 93 1022.5
20260905054704 11 256 0.0 1.6 0.00 0.13 0.00 93 1022.2
20260905053203 11 256 0.0 8.0 0.00 0.13 0.00 93 1022.0
20260905051203 11 281 1.6 8.0 0.00 0.13 0.00 93 1021.7
20260905050704 11 271 1.6 8.0 0.00 0.13 0.00 93 1021.7
20260905050203 11 259 1.6 4.8 0.00 0.13 0.00 93 1021.7
20260905044204 11 268 0.0 3.2 0.00 0.13 0.00 93 1021.6
20260905043204 11 268 1.6 4.8 0.00 0.13 0.00 93 1021.4
20260905041203 11 285 3.2 8.0 0.00 0.13 0.00 92 1021.3
20260905040704 11 286 3.2 12.9 0.00 0.13 0.00 92 1021.3
20260905034203 11 232 1.6 3.2 0.00 0.13 0.00 92 1021.1
20260905033704 11 232 0.0 3.2 0.00 0.13 0.00 92 1020.8
20260905031703 12 245 0.0 0.0 0.00 0.13 0.00 92 1020.7
20260905031204 12 245 1.6 3.2 0.00 0.13 0.00 92 1020.7
20260905030704 12 247 0.0 1.6 0.00 0.13 0.00 92 1020.6
20260905030205 12 247 0.0 3.2 0.00 0.13 0.00 92 1020.5
20260905024704 12 245 0.0 1.6 0.00 0.13 0.00 92 1020.5
20260905024205 12 245 0.0 3.2 0.00 0.13 0.00 92 1020.5
20260905023703 12 246 1.6 3.2 0.00 0.13 0.00 92 1020.4
20260905023203 12 248 1.6 8.0 0.00 0.13 0.00 91 1020.4
20260905021704 12 267 1.6 4.8 0.00 0.13 0.00 92 1020.2
20260905021204 12 236 0.0 3.2 0.00 0.13 0.00 92 1020.1
20260905020704 12 277 0.0 8.0 0.00 0.13 0.00 92 1020.1
20260905014703 12 237 0.0 0.0 0.00 0.13 0.00 91 1020.0
20260905014204 12 237 0.0 0.0 0.00 0.13 0.00 91 1020.1
20260905013704 12 237 0.0 1.6 0.00 0.13 0.00 91 1020.1
20260905013204 12 238 0.0 3.2 0.00 0.13 0.00 91 1020.0
20260905011704 12 239 3.2 11.3 0.00 0.13 0.00 91 1019.9
20260905011204 12 212 0.0 0.0 0.00 0.13 0.00 91 1019.9
20260905010704 12 212 0.0 0.0 0.00 0.13 0.00 91 1019.8
20260905010204 12 212 0.0 4.8 0.00 0.13 0.00 91 1019.8
20260905004704 12 223 1.6 3.2 0.00 0.13 0.00 90 1019.9
20260905003704 12 219 0.0 1.6 0.00 0.13 0.00 90 1019.9
20260905003204 12 219 0.0 3.2 0.00 0.13 0.00 90 1019.9
20260905001704 12 219 1.6 3.2 0.00 0.13 0.00 89 1019.9
20260905001204 12 219 1.6 3.2 0.00 0.13 0.00 89 1019.8
20260905000204 12 218 0.0 3.2 0.00 0.13 0.00 89 1019.7
20260904234704 12 217 0.0 1.6 0.00 0.13 0.00 88 1019.6
20260904234204 12 217 0.0 1.6 0.00 0.13 0.00 88 1019.6
20260904233704 12 217 0.0 1.6 0.00 0.13 0.00 88 1019.6
20260904231203 13 236 0.0 1.6 0.00 0.13 0.00 88 1019.6
20260904230703 13 236 0.0 4.8 0.00 0.13 0.00 87 1019.5
20260904224704 13 199 3.2 4.8 0.00 0.13 0.13 87 1019.3
20260904224205 13 209 0.0 1.6 0.00 0.13 0.13 86 1019.3
20260904223704 13 209 0.0 3.2 0.00 0.13 0.13 86 1019.3
20260904223204 13 209 0.0 1.6 0.00 0.13 0.13 86 1019.2
20260904221704 13 212 0.0 3.2 0.00 0.13 0.13 85 1019.2
20260904221204 13 213 0.0 0.0 0.00 0.13 0.13 85 1019.1
20260904220705 13 213 0.0 0.0 0.00 0.13 0.13 85 1019.2